When you browse on this site, cookies collect data to enhance your experience and personalize the content and advertising you see.
Visit our Privacy Policy to learn more. By continuing to use the site, you agree to this use of cookies and data.
  • In Netherlands
  • List of Countries
  • For 7 days
  • Water Temperature
  • Satellite Maps
  • Weather Map
  • Weather Widgets
  • user-avatar
    Login

    Hourly Weather Sevan

    Today, 25 May, Saturday

    Time Temperature Precipitation Wind Pressure Humidity
    00:00 +15°C° 0.3 mm 1 mps 642 mmHg 60%
    01:00 +15°C° 0.1 mm 2 mps 642 mmHg 59%
    02:00 +15°C° 0.1 mm 2 mps 642 mmHg 59%
    03:00 +14°C° 0 mm 2 mps 642 mmHg 60%
    04:00 +15°C° 0.1 mm 2 mps 642 mmHg 59%
    05:00 +16°C° 0.1 mm 2 mps 642 mmHg 58%
    06:00 +16°C° 0.1 mm 2 mps 643 mmHg 57%
    07:00 +18°C° 0 mm 2 mps 643 mmHg 51%
    08:00 +20°C° 0 mm 3 mps 643 mmHg 45%
    09:00 +24°C° 0 mm 3 mps 644 mmHg 40%
    10:00 +23°C° 0.1 mm 4 mps 644 mmHg 38%
    11:00 +25°C° 0.1 mm 5 mps 644 mmHg 37%
    12:00 +26°C° 0.1 mm 6 mps 644 mmHg 36%
    13:00 +26°C° 0.1 mm 6 mps 643 mmHg 36%
    14:00 +26°C° 0.1 mm 5 mps 643 mmHg 36%
    15:00 +26°C° 0.1 mm 5 mps 643 mmHg 37%
    16:00 +25°C° 0.1 mm 4 mps 643 mmHg 40%
    17:00 +23°C° 0.1 mm 4 mps 642 mmHg 43%
    18:00 +22°C° 0.1 mm 3 mps 642 mmHg 46%
    19:00 +20°C° 0.5 mm 3 mps 642 mmHg 49%
    20:00 +19°C° 0.5 mm 2 mps 641 mmHg 52%
    21:00 +17°C° 0.5 mm 2 mps 641 mmHg 55%
    22:00 +16°C° 0.2 mm 2 mps 641 mmHg 55%
    23:00 +16°C° 0.2 mm 2 mps 641 mmHg 55%

    Tomorrow, 26 May, Sunday

    Time Temperature Precipitation Wind Pressure Humidity
    00:00 +15°C° 0.2 mm 2 mps 641 mmHg 56%
    01:00 +15°C° 0 mm 1 mps 641 mmHg 56%
    02:00 +14°C° 0 mm 1 mps 641 mmHg 56%
    03:00 +14°C° 0 mm 1 mps 640 mmHg 56%
    04:00 +15°C° 0 mm 1 mps 641 mmHg 56%
    05:00 +15°C° 0 mm 1 mps 641 mmHg 56%
    06:00 +16°C° 0 mm 1 mps 641 mmHg 56%
    07:00 +17°C° 0 mm 2 mps 641 mmHg 50%
    08:00 +19°C° 0 mm 2 mps 642 mmHg 44%
    09:00 +21°C° 0 mm 2 mps 642 mmHg 38%
    10:00 +22°C° 0 mm 3 mps 642 mmHg 37%
    11:00 +24°C° 0 mm 3 mps 642 mmHg 36%
    12:00 +25°C° 0 mm 4 mps 642 mmHg 35%
    13:00 +25°C° 0 mm 4 mps 641 mmHg 34%
    14:00 +25°C° 0 mm 4 mps 641 mmHg 34%
    15:00 +26°C° 0 mm 4 mps 641 mmHg 33%
    16:00 +25°C° 0 mm 3 mps 641 mmHg 37%
    17:00 +24°C° 0 mm 3 mps 641 mmHg 40%
    18:00 +23°C° 0 mm 2 mps 641 mmHg 43%
    19:00 +20°C° 0.1 mm 2 mps 641 mmHg 49%
    20:00 +17°C° 0.1 mm 3 mps 641 mmHg 56%
    21:00 +14°C° 0.1 mm 3 mps 641 mmHg 62%
    22:00 +13°C° 0.2 mm 3 mps 641 mmHg 66%
    23:00 +12°C° 0.2 mm 3 mps 641 mmHg 70%

    Day after tomorrow, 27 May, Monday

    Time Temperature Precipitation Wind Pressure Humidity
    00:00 +13°C° 0.2 mm 2 mps 642 mmHg 74%
    01:00 +12°C° 0 mm 2 mps 642 mmHg 73%
    02:00 +12°C° 0 mm 1 mps 641 mmHg 73%
    03:00 +11°C° 0 mm 1 mps 641 mmHg 73%
    04:00 +12°C° 0 mm 1 mps 642 mmHg 70%
    05:00 +13°C° 0 mm 1 mps 642 mmHg 67%
    06:00 +14°C° 0 mm 1 mps 643 mmHg 63%
    07:00 +15°C° 0 mm 1 mps 643 mmHg 56%
    08:00 +17°C° 0 mm 2 mps 644 mmHg 48%
    09:00 +19°C° 0 mm 2 mps 644 mmHg 40%
    10:00 +20°C° 0 mm 2 mps 644 mmHg 37%
    11:00 +21°C° 0 mm 2 mps 644 mmHg 34%
    12:00 +22°C° 0 mm 3 mps 644 mmHg 32%
    13:00 +22°C° 0 mm 3 mps 644 mmHg 31%
    14:00 +22°C° 0 mm 3 mps 644 mmHg 30%
    15:00 +24°C° 0 mm 3 mps 644 mmHg 30%
    16:00 +23°C° 0.2 mm 2 mps 644 mmHg 34%
    17:00 +21°C° 0.2 mm 2 mps 644 mmHg 39%
    18:00 +22°C° 0.2 mm 1 mps 644 mmHg 43%
    19:00 +19°C° 0.4 mm 2 mps 644 mmHg 51%
    20:00 +17°C° 0.4 mm 2 mps 644 mmHg 59%
    21:00 +13°C° 0.4 mm 3 mps 644 mmHg 66%
    22:00 +13°C° 0.4 mm 3 mps 644 mmHg 68%
    23:00 +13°C° 0.4 mm 3 mps 644 mmHg 70%

    28 May, Tuesday

    Time Temperature Precipitation Wind Pressure Humidity
    00:00 +12°C° 0.4 mm 3 mps 644 mmHg 72%
    01:00 +12°C° 0.3 mm 3 mps 644 mmHg 73%
    02:00 +11°C° 0.3 mm 3 mps 644 mmHg 74%
    03:00 +11°C° 0.3 mm 3 mps 644 mmHg 75%
    04:00 +13°C° 0.1 mm 2 mps 644 mmHg 74%
    05:00 +13°C° 0.1 mm 2 mps 644 mmHg 73%
    06:00 +13°C° 0.1 mm 2 mps 644 mmHg 72%
    07:00 +15°C° 0 mm 2 mps 645 mmHg 65%
    08:00 +18°C° 0 mm 1 mps 645 mmHg 58%
    09:00 +20°C° 0 mm 1 mps 646 mmHg 51%
    10:00 +21°C° 0.1 mm 1 mps 646 mmHg 48%
    11:00 +21°C° 0.1 mm 2 mps 646 mmHg 45%
    12:00 +23°C° 0.1 mm 2 mps 646 mmHg 42%
    13:00 +23°C° 0.3 mm 2 mps 646 mmHg 41%
    14:00 +23°C° 0.3 mm 2 mps 645 mmHg 41%
    15:00 +24°C° 0.3 mm 2 mps 645 mmHg 40%
    16:00 +23°C° 0.4 mm 2 mps 645 mmHg 44%
    17:00 +21°C° 0.4 mm 2 mps 645 mmHg 49%
    18:00 +20°C° 0.4 mm 2 mps 645 mmHg 53%
    19:00 +19°C° 0.4 mm 3 mps 645 mmHg 59%
    20:00 +17°C° 0.4 mm 3 mps 645 mmHg 65%
    21:00 +14°C° 0.4 mm 4 mps 645 mmHg 71%
    22:00 +14°C° 0.1 mm 3 mps 645 mmHg 72%
    23:00 +13°C° 0.1 mm 3 mps 645 mmHg 74%

    29 May, Wednesday

    Time Temperature Precipitation Wind Pressure Humidity
    00:00 +13°C° 0.1 mm 3 mps 644 mmHg 76%
    01:00 +12°C° 0 mm 3 mps 644 mmHg 78%
    02:00 +12°C° 0 mm 3 mps 644 mmHg 79%
    03:00 +11°C° 0 mm 3 mps 644 mmHg 80%
    04:00 +12°C° 0 mm 3 mps 644 mmHg 79%
    05:00 +12°C° 0 mm 3 mps 644 mmHg 77%
    06:00 +13°C° 0 mm 3 mps 645 mmHg 75%
    07:00 +16°C° 0 mm 2 mps 645 mmHg 68%
    08:00 +17°C° 0 mm 2 mps 645 mmHg 61%
    09:00 +20°C° 0 mm 1 mps 646 mmHg 54%
    10:00 +21°C° 0.1 mm 1 mps 646 mmHg 51%
    11:00 +21°C° 0.1 mm 2 mps 646 mmHg 48%
    12:00 +23°C° 0.1 mm 2 mps 646 mmHg 45%
    13:00 +24°C° 0.3 mm 2 mps 645 mmHg 45%
    14:00 +24°C° 0.3 mm 2 mps 645 mmHg 46%
    15:00 +24°C° 0.3 mm 2 mps 645 mmHg 46%
    16:00 +23°C° 0.2 mm 2 mps 645 mmHg 50%
    17:00 +21°C° 0.2 mm 3 mps 645 mmHg 54%
    18:00 +21°C° 0.2 mm 3 mps 644 mmHg 59%
    19:00 +19°C° 0.1 mm 4 mps 644 mmHg 65%
    20:00 +17°C° 0.1 mm 4 mps 644 mmHg 71%
    21:00 +14°C° 0.1 mm 4 mps 644 mmHg 77%
    22:00 +13°C° 0 mm 4 mps 644 mmHg 77%
    23:00 +13°C° 0 mm 4 mps 644 mmHg 78%

    30 May, Thursday

    Time Temperature Precipitation Wind Pressure Humidity
    00:00 +12°C° 0 mm 3 mps 644 mmHg 78%
    01:00 +12°C° 0 mm 3 mps 644 mmHg 78%
    02:00 +12°C° 0 mm 3 mps 644 mmHg 79%
    03:00 +11°C° 0 mm 3 mps 643 mmHg 79%
    04:00 +12°C° 0 mm 3 mps 644 mmHg 78%
    05:00 +12°C° 0 mm 3 mps 644 mmHg 76%
    06:00 +13°C° 0 mm 3 mps 644 mmHg 74%
    07:00 +16°C° 0 mm 2 mps 644 mmHg 63%
    08:00 +18°C° 0 mm 2 mps 645 mmHg 53%
    09:00 +21°C° 0 mm 1 mps 645 mmHg 42%
    10:00 +22°C° 0 mm 1 mps 645 mmHg 40%
    11:00 +23°C° 0 mm 2 mps 645 mmHg 38%
    12:00 +24°C° 0 mm 2 mps 645 mmHg 36%
    13:00 +25°C° 0.2 mm 2 mps 645 mmHg 38%
    14:00 +25°C° 0.2 mm 2 mps 645 mmHg 39%
    15:00 +25°C° 0.2 mm 3 mps 644 mmHg 41%
    16:00 +24°C° 0.2 mm 3 mps 644 mmHg 45%
    17:00 +22°C° 0.2 mm 3 mps 644 mmHg 50%
    18:00 +22°C° 0.2 mm 3 mps 644 mmHg 54%
    19:00 +20°C° 0 mm 3 mps 644 mmHg 59%
    20:00 +17°C° 0 mm 3 mps 644 mmHg 65%
    21:00 +14°C° 0 mm 3 mps 644 mmHg 70%
    22:00 +14°C° 0 mm 3 mps 644 mmHg 68%
    23:00 +13°C° 0 mm 3 mps 644 mmHg 66%
    Show more